Voltar ao catálogo

STARLINK-5072

AtivoComunicaçõesVLEO
NORAD 55758·PAYLOAD·🇺🇸 United States

Lançado Mar 3, 2023 de Vandenberg Space Force Base

Loading…

Próximas Passagens (próximas 24 horas)

TLE

AtualizadoSource: CelesTrak SupGP

Época: Sep 15, 2026, 02:22 UTC

1 55758C 23028T   26258.09909722  .00022714  00000+0  19037-2 0  2581
2 55758  70.0002 126.7789 0002948 271.8096 123.1457 14.98316331    10

Acompanhe STARLINK-5072 em tempo real com AllMySat

Download on the App Store